SL-8 DEB, 1617

Orbit data source: Space-Track

SL-8 DEB, 1617 is space debris in LEO originally from a launch on Sat, 18 Sep 1965 UTC launched from the Tyuratam Missile And Space Complex (TTMTR). Debris objects in space refer to the collection of defunct objects orbiting the Earth. Examples of debris include non-operational satellites, rocket bodies, and fragments generated from explosions, collisions, or faulty payload assembly.

Loading next visibility...
Identifier
1617, 1965-073J
Orbit
LEO
Country
Flag of CISCIS
Related business
Manufacturer
Unknown
Mission
Spacecraft
Bus & Motor
Unknown
Mass
Unknown
Launch date (UTC)
1965-09-18 (61 years ago)
Launch vehicle
Unknown
Launch site
Tyuratam Missile And Space Complex (TTMTR)
Object type
Payload
Rocket body
Debris
Shape & HBR
Unknown shape, 0.2 m
Radar Cross Section
Medium (>0.1 m² and <1 m²)

Expand to show TLE details & history
Last TLE update: 7 hours ago

TLE from 7 hours ago
0 SL-8 DEB
1  1617U 65073J   26104.38280373  .00000047  00000-0  10020-2 0  9999
2  1617  56.1280 232.4061 0234679 223.4857 167.9168 12.34832238722565
Epoch: 2026-04-14T09:11Z
TLE epoch observation values (Epoch: 2026-04-14T09:11:14.242Z)
Latitude
26.12147°
Longitude
-88.84016°
Altitude
1,711.575 km
Speed
6.942 km/s
True Right ascension
16h 46m 06s
True Declination
26° 00' 06"
Sunlit
Object was in daylight at epoch
Visualization orbit readout
Latitude
Unknown
Longitude
Unknown
Altitude
Unknown
Speed
Unknown
Apparent Right ascension
Unknown
Apparent Declination
Unknown
Sunlit
N/A
Visualization observer readout
Local Sidereal Time
22:50:36
Azimuth
Unknown
Elevation
Unknown
Doppler factor
Unknown
Orbital elements
Apogee altitude
1,713.951 km
Perigee altitude
1,342.851 km
Semi-major axis
7,906.538 km
Eccentricity
0.02347
Inclination
56.128°
RAAN
232.4061°
Arg. of periapsis
223.4857°
True anomaly
168.46402°
Mean anomaly
167.9168°
Eccentric anomaly
168.19195°
Mean motion
3.08719 °/min
Orbital period
116.61 mins
BSTAR
0.001002
Loading maneuver chart data...
Computing Atmospheric mass density...
Loading historical data...
Loading historical data...
Loading historical data...
Loading historical data...
Loading historical data...
Loading historical data...
Loading historical data...

Documentation

Showing up to 5 results
|